TimeMDT,TemperatureF,Dew PointF,Humidity,Sea Level PressureIn,VisibilityMPH,Wind Direction,Wind SpeedMPH,Gust SpeedMPH,PrecipitationIn,Events,Conditions,WindDirDegrees,DateUTC
5:00 AM,42.8,42.8,100,30.08,15.0,NW,3.5,-,N/A,,Scattered Clouds,310,2013-07-28 11:00:00
6:00 AM,44,44,98,30.07,19,NNW,3.5,,,,Partly Cloudy,330,2013-07-28 12:00:00
6:00 AM,44.6,42.8,93,30.07,20.0,NNW,3.5,-,N/A,,Mostly Cloudy,330,2013-07-28 12:00:00
7:00 AM,46.4,46.4,100,30.06,20.0,Calm,Calm,-,N/A,,Scattered Clouds,0,2013-07-28 13:00:00
8:00 AM,50.0,46.4,87,30.07,20.0,North,3.5,-,N/A,,Mostly Cloudy,360,2013-07-28 14:00:00
9:00 AM,51.8,42.8,71,30.07,20.0,NNE,6.9,-,N/A,,Overcast,30,2013-07-28 15:00:00
10:00 AM,51.8,42.8,71,30.08,15.0,NE,2.3,-,N/A,,Overcast,40,2013-07-28 16:00:00
11:00 AM,51.8,42.8,71,30.08,20.0,Variable,2.3,-,N/A,,Overcast,0,2013-07-28 17:00:00
12:00 PM,54,45,63,30.08,19,East,5.8,,,,Overcast,90,2013-07-28 18:00:00
12:00 PM,53.6,44.6,72,30.07,20.0,ENE,5.8,-,N/A,,Overcast,70,2013-07-28 18:00:00
1:00 PM,57.2,44.6,63,30.06,20.0,East,6.9,-,N/A,,Mostly Cloudy,80,2013-07-28 19:00:00
2:00 PM,57.2,46.4,67,30.05,20.0,Variable,4.6,-,N/A,,Mostly Cloudy,0,2013-07-28 20:00:00
3:00 PM,60.8,48.2,63,30.05,20.0,West,3.5,-,N/A,,Mostly Cloudy,260,2013-07-28 21:00:00
4:00 PM,62.6,46.4,55,30.05,20.0,NNE,4.6,-,N/A,,Mostly Cloudy,20,2013-07-28 22:00:00
5:00 PM,62.6,48.2,59,30.05,15.0,SSE,6.9,-,N/A,,Mostly Cloudy,160,2013-07-28 23:00:00
6:00 PM,60,47,53,30.07,19,NE,9.2,,,,Mostly Cloudy,40,2013-07-29 00:00:00
6:00 PM,60.8,48.2,63,30.07,20.0,NE,8.1,-,N/A,,Mostly Cloudy,50,2013-07-29 00:00:00
6:15 PM,53.6,42.8,67,30.11,20.0,North,25.3,33.4,N/A,,Mostly Cloudy,360,2013-07-29 00:15:00
6:45 PM,51.8,42.8,71,30.13,12.0,North,17.3,28.8,N/A,Rain,Light Rain Showers,10,2013-07-29 00:45:00
7:00 PM,50.0,46.4,87,30.14,6.0,North,18.4,-,N/A,Rain,Light Rain Showers,10,2013-07-29 01:00:00
7:25 PM,50.0,46.4,87,30.12,15.0,NE,13.8,20.7,N/A,,Mostly Cloudy,40,2013-07-29 01:25:00
8:00 PM,51.8,46.4,82,30.12,15.0,NW,11.5,-,N/A,,Mostly Cloudy,310,2013-07-29 02:00:00
9:00 PM,50.0,48.2,94,30.14,15.0,WNW,4.6,-,N/A,,Mostly Cloudy,290,2013-07-29 03:00:00
10:00 PM,50.0,48.2,94,30.12,15.0,WSW,2.3,-,N/A,,Mostly Cloudy,250,2013-07-29 04:00:00